• In Czech Republic
  • List of Countries
  • For 7 days
  • Water Temperature
  • Satellite Maps
  • Weather Map
  • Weather Widgets
  • user-avatar
    Login

    Hourly Weather Alcala de Henares

    Today, 23 September, Sunday

    Time Temperature Precipitation Wind Pressure Humidity
    00:00 +26°C° 0 mm 2 mps 716 mmHg 30%
    01:00 +26°C° 0 mm 2 mps 716 mmHg 32%
    02:00 +25°C° 0 mm 2 mps 716 mmHg 33%
    03:00 +25°C° 0 mm 2 mps 716 mmHg 34%
    04:00 +24°C° 0 mm 2 mps 716 mmHg 36%
    05:00 +24°C° 0 mm 2 mps 716 mmHg 37%
    06:00 +23°C° 0 mm 1 mps 716 mmHg 39%
    07:00 +25°C° 0 mm 1 mps 716 mmHg 36%
    08:00 +27°C° 0 mm 1 mps 716 mmHg 33%
    09:00 +29°C° 0 mm 1 mps 717 mmHg 29%
    10:00 +30°C° 0 mm 1 mps 717 mmHg 27%
    11:00 +32°C° 0 mm 1 mps 717 mmHg 24%
    12:00 +33°C° 0 mm 1 mps 717 mmHg 22%
    13:00 +34°C° 0 mm 1 mps 716 mmHg 21%
    14:00 +35°C° 0 mm 2 mps 716 mmHg 20%
    15:00 +36°C° 0 mm 2 mps 715 mmHg 20%
    16:00 +35°C° 0 mm 2 mps 715 mmHg 22%
    17:00 +32°C° 0 mm 1 mps 715 mmHg 24%
    18:00 +31°C° 0 mm 1 mps 715 mmHg 26%
    19:00 +30°C° 0 mm 2 mps 715 mmHg 27%
    20:00 +29°C° 0 mm 2 mps 716 mmHg 28%
    21:00 +28°C° 0 mm 3 mps 716 mmHg 29%
    22:00 +27°C° 0 mm 3 mps 716 mmHg 36%
    23:00 +26°C° 0 mm 4 mps 716 mmHg 43%

    Tomorrow, 24 September, Monday

    Time Temperature Precipitation Wind Pressure Humidity
    00:00 +25°C° 0 mm 4 mps 716 mmHg 49%
    01:00 +25°C° 0 mm 4 mps 716 mmHg 52%
    02:00 +23°C° 0 mm 4 mps 716 mmHg 54%
    03:00 +24°C° 0 mm 3 mps 716 mmHg 56%
    04:00 +22°C° 0 mm 4 mps 716 mmHg 58%
    05:00 +22°C° 0 mm 4 mps 716 mmHg 59%
    06:00 +21°C° 0 mm 4 mps 716 mmHg 61%
    07:00 +23°C° 0 mm 4 mps 716 mmHg 57%
    08:00 +25°C° 0 mm 4 mps 717 mmHg 54%
    09:00 +26°C° 0 mm 5 mps 717 mmHg 50%
    10:00 +28°C° 0 mm 4 mps 717 mmHg 44%
    11:00 +30°C° 0 mm 3 mps 717 mmHg 39%
    12:00 +31°C° 0 mm 3 mps 717 mmHg 34%
    13:00 +33°C° 0 mm 3 mps 716 mmHg 32%
    14:00 +32°C° 0 mm 2 mps 715 mmHg 29%
    15:00 +34°C° 0 mm 2 mps 715 mmHg 27%
    16:00 +32°C° 0 mm 2 mps 715 mmHg 30%
    17:00 +31°C° 0 mm 2 mps 715 mmHg 32%
    18:00 +30°C° 0 mm 2 mps 715 mmHg 35%
    19:00 +29°C° 0 mm 2 mps 715 mmHg 37%
    20:00 +27°C° 0 mm 3 mps 715 mmHg 39%
    21:00 +26°C° 0 mm 4 mps 716 mmHg 41%
    22:00 +25°C° 0 mm 4 mps 716 mmHg 42%
    23:00 +23°C° 0 mm 4 mps 716 mmHg 43%

    Day after tomorrow, 25 September, Tuesday

    Time Temperature Precipitation Wind Pressure Humidity
    00:00 +22°C° 0 mm 4 mps 715 mmHg 43%
    01:00 +22°C° 0 mm 4 mps 715 mmHg 44%
    02:00 +21°C° 0 mm 3 mps 715 mmHg 46%
    03:00 +21°C° 0 mm 3 mps 715 mmHg 47%
    04:00 +20°C° 0 mm 3 mps 715 mmHg 48%
    05:00 +20°C° 0 mm 3 mps 715 mmHg 49%
    06:00 +20°C° 0 mm 3 mps 715 mmHg 50%
    07:00 +21°C° 0 mm 3 mps 715 mmHg 50%
    08:00 +24°C° 0 mm 3 mps 716 mmHg 51%
    09:00 +25°C° 0 mm 4 mps 716 mmHg 52%
    10:00 +26°C° 0 mm 4 mps 716 mmHg 49%
    11:00 +28°C° 0 mm 4 mps 716 mmHg 46%
    12:00 +29°C° 0 mm 4 mps 715 mmHg 43%
    13:00 +30°C° 0 mm 4 mps 715 mmHg 41%
    14:00 +31°C° 0 mm 3 mps 715 mmHg 39%
    15:00 +31°C° 0 mm 3 mps 714 mmHg 37%
    16:00 +30°C° 0 mm 4 mps 714 mmHg 42%
    17:00 +29°C° 0 mm 5 mps 714 mmHg 47%
    18:00 +27°C° 0 mm 6 mps 714 mmHg 52%
    19:00 +26°C° 0 mm 6 mps 715 mmHg 58%
    20:00 +24°C° 0 mm 6 mps 715 mmHg 64%
    21:00 +22°C° 0 mm 6 mps 716 mmHg 69%
    22:00 +22°C° 0 mm 5 mps 716 mmHg 71%
    23:00 +21°C° 0 mm 5 mps 716 mmHg 73%

    26 September, Wednesday

    Time Temperature Precipitation Wind Pressure Humidity
    00:00 +21°C° 0 mm 4 mps 716 mmHg 75%
    01:00 +20°C° 0 mm 4 mps 716 mmHg 76%
    02:00 +20°C° 0 mm 4 mps 716 mmHg 77%
    03:00 +20°C° 0 mm 3 mps 716 mmHg 78%
    04:00 +19°C° 0 mm 3 mps 716 mmHg 79%
    05:00 +19°C° 0 mm 3 mps 716 mmHg 80%
    06:00 +19°C° 0 mm 3 mps 716 mmHg 80%
    07:00 +20°C° 0 mm 3 mps 716 mmHg 75%
    08:00 +21°C° 0 mm 4 mps 717 mmHg 69%
    09:00 +22°C° 0 mm 4 mps 717 mmHg 64%
    10:00 +25°C° 0 mm 4 mps 717 mmHg 58%
    11:00 +26°C° 0 mm 4 mps 717 mmHg 53%
    12:00 +27°C° 0 mm 4 mps 717 mmHg 48%
    13:00 +28°C° 0 mm 4 mps 717 mmHg 45%
    14:00 +29°C° 0 mm 4 mps 717 mmHg 43%
    15:00 +29°C° 0 mm 4 mps 716 mmHg 41%
    16:00 +29°C° 0 mm 4 mps 716 mmHg 44%
    17:00 +28°C° 0 mm 4 mps 716 mmHg 47%
    18:00 +27°C° 0 mm 4 mps 716 mmHg 50%
    19:00 +26°C° 0.1 mm 4 mps 717 mmHg 55%
    20:00 +23°C° 0.1 mm 5 mps 717 mmHg 60%
    21:00 +22°C° 0.1 mm 5 mps 718 mmHg 65%
    22:00 +22°C° 0.1 mm 4 mps 718 mmHg 68%
    23:00 +21°C° 0.1 mm 3 mps 718 mmHg 71%

    27 September, Thursday

    Time Temperature Precipitation Wind Pressure Humidity
    00:00 +20°C° 0.1 mm 2 mps 718 mmHg 75%
    01:00 +20°C° 0 mm 2 mps 718 mmHg 77%
    02:00 +20°C° 0 mm 2 mps 718 mmHg 78%
    03:00 +20°C° 0 mm 1 mps 717 mmHg 80%
    04:00 +19°C° 0 mm 2 mps 717 mmHg 81%
    05:00 +19°C° 0 mm 2 mps 717 mmHg 82%
    06:00 +19°C° 0 mm 2 mps 717 mmHg 83%
    07:00 +20°C° 0 mm 2 mps 718 mmHg 77%
    08:00 +21°C° 0 mm 3 mps 718 mmHg 71%
    09:00 +24°C° 0 mm 3 mps 718 mmHg 65%
    10:00 +25°C° 0 mm 3 mps 718 mmHg 59%
    11:00 +26°C° 0 mm 3 mps 718 mmHg 53%
    12:00 +27°C° 0 mm 3 mps 718 mmHg 48%
    13:00 +28°C° 0.1 mm 3 mps 717 mmHg 46%
    14:00 +28°C° 0.1 mm 3 mps 717 mmHg 45%
    15:00 +29°C° 0.1 mm 3 mps 716 mmHg 43%
    16:00 +28°C° 0.1 mm 3 mps 716 mmHg 46%
    17:00 +27°C° 0.1 mm 3 mps 716 mmHg 48%
    18:00 +26°C° 0.1 mm 2 mps 716 mmHg 51%
    19:00 +25°C° 0.2 mm 3 mps 716 mmHg 56%
    20:00 +24°C° 0.2 mm 3 mps 716 mmHg 60%
    21:00 +22°C° 0.2 mm 3 mps 716 mmHg 65%
    22:00 +22°C° 0.3 mm 3 mps 716 mmHg 68%
    23:00 +21°C° 0.3 mm 2 mps 716 mmHg 72%

    28 September, Friday

    Time Temperature Precipitation Wind Pressure Humidity
    00:00 +20°C° 0.3 mm 2 mps 716 mmHg 76%
    01:00 +20°C° 0.1 mm 2 mps 715 mmHg 78%
    02:00 +21°C° 0.1 mm 1 mps 715 mmHg 80%
    03:00 +20°C° 0.1 mm 1 mps 715 mmHg 82%
    04:00 +20°C° 0 mm 1 mps 715 mmHg 82%
    05:00 +20°C° 0 mm 1 mps 714 mmHg 83%
    06:00 +19°C° 0 mm 1 mps 714 mmHg 84%
    07:00 +21°C° 0.1 mm 1 mps 714 mmHg 76%
    08:00 +22°C° 0.1 mm 1 mps 715 mmHg 69%
    09:00 +24°C° 0.1 mm 1 mps 715 mmHg 61%
    10:00 +25°C° 0.1 mm 1 mps 715 mmHg 55%
    11:00 +26°C° 0.1 mm 1 mps 714 mmHg 49%
    12:00 +28°C° 0.1 mm 2 mps 714 mmHg 44%
    13:00 +28°C° 0 mm 1 mps 713 mmHg 41%
    14:00 +29°C° 0 mm 1 mps 713 mmHg 39%
    15:00 +29°C° 0 mm 1 mps 712 mmHg 37%
    16:00 +28°C° 0.1 mm 1 mps 712 mmHg 39%
    17:00 +28°C° 0.1 mm 1 mps 712 mmHg 42%
    18:00 +27°C° 0.1 mm 1 mps 712 mmHg 44%
    19:00 +26°C° 0.4 mm 1 mps 712 mmHg 47%
    20:00 +25°C° 0.4 mm 1 mps 712 mmHg 49%
    21:00 +23°C° 0.4 mm 0 mps 712 mmHg 52%
    22:00 +22°C° 0.2 mm 0 mps 712 mmHg 54%
    23:00 +24°C° 0.2 mm 1 mps 711 mmHg 56%
    Show more